Time,TemperatureF,DewpointF,PressureIn,WindDirection,WindDirectionDegrees,WindSpeedMPH,WindSpeedGustMPH,Humidity,HourlyPrecipIn,Conditions,Clouds,dailyrainin,SoftwareType,DateUTC
2013-05-18 00:05:00,76.7,69.7,29.89,SE,124,1.0,1.0,79,0.00,,,0.00,Wunderground v.1.15,2013-05-18 05:05:00,
2013-05-18 00:14:00,76.5,69.5,29.89,SE,132,1.0,1.0,79,0.00,,,0.00,Wunderground v.1.15,2013-05-18 05:14:00,
2013-05-18 00:25:00,76.2,69.6,29.89,ESE,122,1.0,1.0,80,0.00,,,0.00,Wunderground v.1.15,2013-05-18 05:25:00,
2013-05-18 00:34:00,75.8,69.6,29.89,SE,138,1.0,1.0,81,0.00,,,0.00,Wunderground v.1.15,2013-05-18 05:34:00,
2013-05-18 00:45:00,75.5,69.6,29.89,SSE,148,0.0,1.0,82,0.00,,,0.00,Wunderground v.1.15,2013-05-18 05:45:00,
2013-05-18 00:54:00,75.3,69.8,29.88,SE,129,0.0,0.0,83,0.00,,,0.00,Wunderground v.1.15,2013-05-18 05:54:00,
2013-05-18 01:00:00,75.2,70.0,29.88,ESE,113,0.0,1.0,84,0.00,,,0.00,Wunderground v.1.15,2013-05-18 06:00:00,
2013-05-18 01:09:00,75.0,70.2,29.89,SE,124,1.0,2.0,85,0.00,,,0.00,Wunderground v.1.15,2013-05-18 06:09:00,
2013-05-18 01:20:00,74.7,69.9,29.88,SE,130,1.0,1.0,85,0.00,,,0.00,Wunderground v.1.15,2013-05-18 06:20:00,
2013-05-18 01:29:00,74.4,69.9,29.88,ESE,122,0.0,0.0,86,0.00,,,0.00,Wunderground v.1.15,2013-05-18 06:29:00,
2013-05-18 01:40:00,74.1,70.0,29.88,ESE,122,0.0,1.0,87,0.00,,,0.00,Wunderground v.1.15,2013-05-18 06:40:00,
2013-05-18 01:49:00,73.8,70.0,29.88,SE,129,0.0,0.0,88,0.00,,,0.00,Wunderground v.1.15,2013-05-18 06:49:00,
2013-05-18 02:00:00,73.4,70.0,29.88,SE,131,0.0,0.0,89,0.00,,,0.00,Wunderground v.1.15,2013-05-18 07:00:00,
2013-05-18 02:09:00,73.0,69.9,29.87,SE,129,0.0,0.0,90,0.00,,,0.00,Wunderground v.1.15,2013-05-18 07:09:00,
2013-05-18 02:19:00,72.8,70.0,29.87,SE,129,0.0,0.0,91,0.00,,,0.00,Wunderground v.1.15,2013-05-18 07:19:00,
2013-05-18 02:24:00,72.7,69.9,29.87,SE,130,0.0,0.0,91,0.00,,,0.00,Wunderground v.1.15,2013-05-18 07:24:00,
2013-05-18 02:34:00,72.6,70.1,29.87,SE,129,0.0,1.0,92,0.00,,,0.00,Wunderground v.1.15,2013-05-18 07:34:00,
2013-05-18 02:44:00,72.4,70.3,29.87,SE,134,0.0,0.0,93,0.00,,,0.00,Wunderground v.1.15,2013-05-18 07:44:00,
2013-05-18 02:54:00,72.3,70.2,29.87,SE,134,0.0,0.0,93,0.00,,,0.00,Wunderground v.1.15,2013-05-18 07:54:00,
2013-05-18 03:05:00,72.4,70.6,29.87,ESE,122,0.0,0.0,94,0.00,,,0.00,Wunderground v.1.15,2013-05-18 08:05:00,
2013-05-18 03:14:00,72.6,71.1,29.87,SE,131,0.0,0.0,95,0.00,,,0.00,Wunderground v.1.15,2013-05-18 08:14:00,
2013-05-18 03:20:00,72.7,71.2,29.87,SE,131,0.0,0.0,95,0.00,,,0.00,Wunderground v.1.15,2013-05-18 08:20:00,
2013-05-18 03:29:00,72.9,71.4,29.87,ESE,118,0.0,0.0,95,0.00,,,0.00,Wunderground v.1.15,2013-05-18 08:29:00,
2013-05-18 03:39:00,72.9,71.4,29.87,ESE,122,0.0,0.0,95,0.00,,,0.00,Wunderground v.1.15,2013-05-18 08:39:00,
2013-05-18 03:45:00,72.9,71.4,29.87,WNW,291,0.0,1.0,95,0.00,,,0.00,Wunderground v.1.15,2013-05-18 08:45:00,
2013-05-18 03:54:00,73.0,71.5,29.87,ESE,115,0.0,1.0,95,0.00,,,0.00,Wunderground v.1.15,2013-05-18 08:54:00,
2013-05-18 04:05:00,73.1,71.3,29.87,NW,315,0.0,1.0,94,0.00,,,0.00,Wunderground v.1.15,2013-05-18 09:05:00,
2013-05-18 04:14:00,73.0,71.2,29.87,ESE,121,1.0,1.0,94,0.00,,,0.00,Wunderground v.1.15,2013-05-18 09:14:00,
2013-05-18 04:25:00,72.9,71.1,29.86,West,273,0.0,0.0,94,0.00,,,0.00,Wunderground v.1.15,2013-05-18 09:25:00,
2013-05-18 04:34:00,72.9,71.1,29.87,South,191,0.0,1.0,94,0.00,,,0.00,Wunderground v.1.15,2013-05-18 09:34:00,
2013-05-18 04:45:00,72.9,71.1,29.86,ESE,122,0.0,0.0,94,0.00,,,0.00,Wunderground v.1.15,2013-05-18 09:45:00,
2013-05-18 04:54:00,72.8,71.0,29.86,SW,236,0.0,0.0,94,0.00,,,0.00,Wunderground v.1.15,2013-05-18 09:54:00,
2013-05-18 05:05:00,72.6,70.8,29.87,West,277,0.0,0.0,94,0.00,,,0.00,Wunderground v.1.15,2013-05-18 10:05:00,
2013-05-18 05:14:00,72.6,71.1,29.87,East,98,0.0,0.0,95,0.00,,,0.00,Wunderground v.1.15,2013-05-18 10:14:00,
2013-05-18 05:25:00,72.6,71.1,29.87,East,98,0.0,0.0,95,0.00,,,0.00,Wunderground v.1.15,2013-05-18 10:25:00,
2013-05-18 05:34:00,72.5,71.0,29.87,East,98,0.0,0.0,95,0.00,,,0.00,Wunderground v.1.15,2013-05-18 10:34:00,
2013-05-18 05:45:00,72.6,71.1,29.87,East,98,0.0,0.0,95,0.00,,,0.00,Wunderground v.1.15,2013-05-18 10:45:00,
2013-05-18 05:54:00,72.7,71.2,29.88,SSW,193,0.0,0.0,95,0.00,,,0.00,Wunderground v.1.15,2013-05-18 10:54:00,
2013-05-18 06:05:00,72.7,71.2,29.88,ESE,108,0.0,0.0,95,0.00,,,0.00,Wunderground v.1.15,2013-05-18 11:05:00,
2013-05-18 06:14:00,72.8,71.3,29.88,ESE,110,0.0,1.0,95,0.00,,,0.00,Wunderground v.1.15,2013-05-18 11:14:00,
2013-05-18 06:24:00,72.8,71.0,29.88,SSW,201,0.0,0.0,94,0.00,,,0.00,Wunderground v.1.15,2013-05-18 11:24:00,
2013-05-18 06:30:00,72.8,71.0,29.89,SSW,200,0.0,0.0,94,0.00,,,0.00,Wunderground v.1.15,2013-05-18 11:30:00,
2013-05-18 06:39:00,72.8,71.0,29.89,SE,131,0.0,0.0,94,0.00,,,0.00,Wunderground v.1.15,2013-05-18 11:39:00,
2013-05-18 06:49:00,72.8,71.0,29.89,ESE,108,0.0,0.0,94,0.00,,,0.00,Wunderground v.1.15,2013-05-18 11:49:00,
2013-05-18 06:59:00,72.8,71.0,29.90,SE,129,0.0,0.0,94,0.00,,,0.00,Wunderground v.1.15,2013-05-18 11:59:00,
2013-05-18 07:05:00,72.8,71.0,29.90,SE,130,0.0,0.0,94,0.00,,,0.00,Wunderground v.1.15,2013-05-18 12:05:00,
2013-05-18 07:14:00,72.9,71.1,29.90,ESE,113,0.0,1.0,94,0.00,,,0.00,Wunderground v.1.15,2013-05-18 12:14:00,
2013-05-18 07:25:00,73.0,71.2,29.90,SE,144,1.0,1.0,94,0.00,,,0.00,Wunderground v.1.15,2013-05-18 12:25:00,
2013-05-18 07:34:00,73.2,71.4,29.91,ESE,104,1.0,2.0,94,0.00,,,0.00,Wunderground v.1.15,2013-05-18 12:34:00,
2013-05-18 07:45:00,73.4,71.6,29.90,SE,131,1.0,1.0,94,0.00,,,0.00,Wunderground v.1.15,2013-05-18 12:45:00,
2013-05-18 07:54:00,73.5,71.4,29.90,SE,137,1.0,1.0,93,0.00,,,0.00,Wunderground v.1.15,2013-05-18 12:54:00,
2013-05-18 08:05:00,73.8,71.6,29.90,ESE,108,1.0,1.0,93,0.00,,,0.00,Wunderground v.1.15,2013-05-18 13:05:00,
2013-05-18 08:14:00,74.0,71.5,29.90,SE,138,1.0,1.0,92,0.00,,,0.00,Wunderground v.1.15,2013-05-18 13:14:00,
2013-05-18 08:25:00,74.1,71.6,29.90,ESE,105,1.0,1.0,92,0.00,,,0.00,Wunderground v.1.15,2013-05-18 13:25:00,
2013-05-18 08:34:00,74.5,71.7,29.90,SE,128,1.0,1.0,91,0.00,,,0.00,Wunderground v.1.15,2013-05-18 13:34:00,
2013-05-18 08:40:00,74.7,71.9,29.90,SE,135,1.0,1.0,91,0.00,,,0.00,Wunderground v.1.15,2013-05-18 13:40:00,
2013-05-18 08:49:00,75.2,72.1,29.90,East,82,0.0,2.0,90,0.00,,,0.00,Wunderground v.1.15,2013-05-18 13:49:00,
2013-05-18 08:59:00,75.6,72.5,29.90,NE,44,1.0,1.0,90,0.00,,,0.00,Wunderground v.1.15,2013-05-18 13:59:00,
2013-05-18 09:05:00,75.9,72.4,29.90,SE,145,0.0,1.0,89,0.00,,,0.00,Wunderground v.1.15,2013-05-18 14:05:00,
2013-05-18 09:14:00,76.4,72.6,29.90,ESE,120,1.0,2.0,88,0.00,,,0.00,Wunderground v.1.15,2013-05-18 14:14:00,
2013-05-18 09:25:00,77.0,72.8,29.91,East,96,1.0,1.0,87,0.00,,,0.00,Wunderground v.1.15,2013-05-18 14:25:00,
2013-05-18 09:34:00,77.7,72.8,29.91,SE,128,1.0,2.0,85,0.00,,,0.00,Wunderground v.1.15,2013-05-18 14:34:00,
2013-05-18 09:45:00,78.4,73.2,29.91,East,100,1.0,2.0,84,0.00,,,0.00,Wunderground v.1.15,2013-05-18 14:45:00,
2013-05-18 09:54:00,79.0,73.0,29.91,ESE,122,1.0,1.0,82,0.00,,,0.00,Wunderground v.1.15,2013-05-18 14:54:00,
2013-05-18 10:05:00,79.6,73.6,29.91,East,81,1.0,2.0,82,0.00,,,0.00,Wunderground v.1.15,2013-05-18 15:05:00,
2013-05-18 10:14:00,80.1,73.7,29.91,East,93,1.0,2.0,81,0.00,,,0.00,Wunderground v.1.15,2013-05-18 15:14:00,
2013-05-18 10:25:00,81.0,73.5,29.90,WNW,285,1.0,3.0,78,0.00,,,0.00,Wunderground v.1.15,2013-05-18 15:25:00,
2013-05-18 10:34:00,81.9,73.6,29.91,ESE,122,2.0,2.0,76,0.00,,,0.00,Wunderground v.1.15,2013-05-18 15:34:00,
2013-05-18 10:45:00,82.5,73.8,29.91,SE,130,2.0,3.0,75,0.00,,,0.00,Wunderground v.1.15,2013-05-18 15:45:00,
2013-05-18 10:54:00,83.2,74.0,29.90,ESE,113,2.0,4.0,74,0.00,,,0.00,Wunderground v.1.15,2013-05-18 15:54:00,
2013-05-18 11:04:00,84.0,74.0,29.90,NW,307,2.0,4.0,72,0.00,,,0.00,Wunderground v.1.15,2013-05-18 16:04:00,
2013-05-18 11:14:00,84.7,74.3,29.91,WSW,246,1.0,1.0,71,0.00,,,0.00,Wunderground v.1.15,2013-05-18 16:14:00,
2013-05-18 11:25:00,86.1,73.9,29.91,ESE,108,1.0,1.0,67,0.00,,,0.00,Wunderground v.1.15,2013-05-18 16:25:00,
2013-05-18 11:34:00,86.8,72.7,29.90,South,174,2.0,2.0,63,0.00,,,0.00,Wunderground v.1.15,2013-05-18 16:34:00,
2013-05-18 11:45:00,87.5,72.4,29.90,WSW,257,2.0,5.0,61,0.00,,,0.00,Wunderground v.1.15,2013-05-18 16:45:00,
2013-05-18 11:54:00,88.2,72.6,29.89,South,190,2.0,2.0,60,0.00,,,0.00,Wunderground v.1.15,2013-05-18 16:54:00,
2013-05-18 12:00:00,88.3,73.1,29.89,East,96,2.0,2.0,61,0.00,,,0.00,Wunderground v.1.15,2013-05-18 17:00:00,
2013-05-18 12:09:00,89.5,73.3,29.89,ESE,108,1.0,4.0,59,0.00,,,0.00,Wunderground v.1.15,2013-05-18 17:09:00,
2013-05-18 12:20:00,89.9,73.7,29.88,East,88,2.0,2.0,59,0.00,,,0.00,Wunderground v.1.15,2013-05-18 17:20:00,
2013-05-18 12:29:00,90.8,73.5,29.88,ESE,113,2.0,3.0,57,0.00,,,0.00,Wunderground v.1.15,2013-05-18 17:29:00,
2013-05-18 12:39:00,90.8,72.9,29.87,SSE,150,3.0,3.0,56,0.00,,,0.00,Wunderground v.1.15,2013-05-18 17:39:00,
2013-05-18 12:44:00,91.3,72.9,29.87,ESE,108,2.0,3.0,55,0.00,,,0.00,Wunderground v.1.15,2013-05-18 17:44:00,
2013-05-18 12:54:00,91.8,72.8,29.87,East,81,2.0,2.0,54,0.00,,,0.00,Wunderground v.1.15,2013-05-18 17:54:00,
2013-05-18 12:59:00,92.2,73.7,29.87,East,101,2.0,5.0,55,0.00,,,0.00,Wunderground v.1.15,2013-05-18 17:59:00,
2013-05-18 13:09:00,92.8,72.0,29.86,East,90,3.0,3.0,51,0.00,,,0.00,Wunderground v.1.15,2013-05-18 18:09:00,
2013-05-18 13:19:00,93.0,72.8,29.85,West,276,2.0,2.0,52,0.00,,,0.00,Wunderground v.1.15,2013-05-18 18:19:00,
2013-05-18 13:29:00,94.1,73.2,29.85,WNW,287,2.0,2.0,51,0.00,,,0.00,Wunderground v.1.15,2013-05-18 18:29:00,
2013-05-18 13:35:00,95.0,72.8,29.84,WSW,238,1.0,2.0,49,0.00,,,0.00,Wunderground v.1.15,2013-05-18 18:35:00,
2013-05-18 13:44:00,94.8,70.8,29.84,East,100,3.0,4.0,46,0.00,,,0.00,Wunderground v.1.15,2013-05-18 18:44:00,
2013-05-18 13:50:00,94.7,71.3,29.84,South,181,3.0,3.0,47,0.00,,,0.00,Wunderground v.1.15,2013-05-18 18:50:00,
2013-05-18 13:59:00,95.2,72.4,29.83,East,86,2.0,3.0,48,0.00,,,0.00,Wunderground v.1.15,2013-05-18 18:59:00,
2013-05-18 14:10:00,95.3,71.9,29.83,SW,224,3.0,3.0,47,0.00,,,0.00,Wunderground v.1.15,2013-05-18 19:10:00,
2013-05-18 14:19:00,95.3,71.9,29.83,WNW,300,3.0,3.0,47,0.00,,,0.00,Wunderground v.1.15,2013-05-18 19:19:00,
2013-05-18 14:29:00,95.1,72.3,29.83,SE,131,3.0,3.0,48,0.00,,,0.00,Wunderground v.1.15,2013-05-18 19:29:00,
2013-05-18 14:34:00,95.2,71.8,29.83,SSW,194,3.0,3.0,47,0.00,,,0.00,Wunderground v.1.15,2013-05-18 19:34:00,
2013-05-18 14:44:00,95.3,72.5,29.83,ENE,60,2.0,3.0,48,0.00,,,0.00,Wunderground v.1.15,2013-05-18 19:44:00,
2013-05-18 14:50:00,95.1,71.7,29.83,WSW,242,3.0,3.0,47,0.00,,,0.00,Wunderground v.1.15,2013-05-18 19:50:00,
2013-05-18 14:59:00,94.8,72.7,29.83,ENE,58,3.0,4.0,49,0.00,,,0.00,Wunderground v.1.15,2013-05-18 19:59:00,
2013-05-18 15:10:00,94.8,72.7,29.82,SE,132,3.0,3.0,49,0.00,,,0.00,Wunderground v.1.15,2013-05-18 20:10:00,
2013-05-18 15:19:00,95.9,73.1,29.82,SW,233,2.0,2.0,48,0.00,,,0.00,Wunderground v.1.15,2013-05-18 20:19:00,
2013-05-18 15:25:00,96.0,72.5,29.82,East,96,2.0,2.0,47,0.00,,,0.00,Wunderground v.1.15,2013-05-18 20:25:00,
2013-05-18 15:34:00,94.9,72.1,29.81,East,90,2.0,3.0,48,0.00,,,0.00,Wunderground v.1.15,2013-05-18 20:34:00,
2013-05-18 15:44:00,94.7,73.2,29.81,WNW,295,2.0,3.0,50,0.00,,,0.00,Wunderground v.1.15,2013-05-18 20:44:00,
2013-05-18 15:50:00,95.0,72.2,29.81,ESE,104,2.0,4.0,48,0.00,,,0.00,Wunderground v.1.15,2013-05-18 20:50:00,
2013-05-18 15:59:00,94.6,72.5,29.81,SSE,148,2.0,2.0,49,0.00,,,0.00,Wunderground v.1.15,2013-05-18 20:59:00,
2013-05-18 16:05:00,94.1,71.4,29.80,SE,132,3.0,3.0,48,0.00,,,0.00,Wunderground v.1.15,2013-05-18 21:05:00,
2013-05-18 16:14:00,93.6,71.6,29.80,East,99,2.0,3.0,49,0.00,,,0.00,Wunderground v.1.15,2013-05-18 21:14:00,
2013-05-18 16:20:00,93.1,71.7,29.81,ESE,105,2.0,2.0,50,0.00,,,0.00,Wunderground v.1.15,2013-05-18 21:20:00,
2013-05-18 16:29:00,93.0,71.6,29.80,East,88,2.0,2.0,50,0.00,,,0.00,Wunderground v.1.15,2013-05-18 21:29:00,
2013-05-18 16:39:00,92.5,71.2,29.80,NNW,346,2.0,2.0,50,0.00,,,0.00,Wunderground v.1.15,2013-05-18 21:39:00,
2013-05-18 16:45:00,92.6,70.0,29.81,ESE,120,2.0,3.0,48,0.00,,,0.00,Wunderground v.1.15,2013-05-18 21:45:00,
2013-05-18 16:54:00,92.8,70.2,29.80,East,86,3.0,3.0,48,0.00,,,0.00,Wunderground v.1.15,2013-05-18 21:54:00,
2013-05-18 17:04:00,93.3,70.1,29.80,SE,136,2.0,2.0,47,0.00,,,0.00,Wunderground v.1.15,2013-05-18 22:04:00,
2013-05-18 17:09:00,92.9,69.1,29.80,ESE,110,2.0,3.0,46,0.00,,,0.00,Wunderground v.1.15,2013-05-18 22:09:00,
2013-05-18 17:19:00,92.1,69.0,29.80,ESE,120,2.0,2.0,47,0.00,,,0.00,Wunderground v.1.15,2013-05-18 22:19:00,
2013-05-18 17:25:00,91.8,68.7,29.80,SSE,149,2.0,2.0,47,0.00,,,0.00,Wunderground v.1.15,2013-05-18 22:25:00,
2013-05-18 17:34:00,91.0,68.6,29.80,SE,124,2.0,4.0,48,0.00,,,0.00,Wunderground v.1.15,2013-05-18 22:34:00,
2013-05-18 17:45:00,90.0,69.4,29.80,SE,136,3.0,3.0,51,0.00,,,0.00,Wunderground v.1.15,2013-05-18 22:45:00,
2013-05-18 17:54:00,89.5,69.5,29.80,ESE,106,2.0,4.0,52,0.00,,,0.00,Wunderground v.1.15,2013-05-18 22:54:00,
2013-05-18 18:05:00,89.0,69.1,29.80,ESE,108,2.0,6.0,52,0.00,,,0.00,Wunderground v.1.15,2013-05-18 23:05:00,
2013-05-18 18:14:00,88.6,69.3,29.80,ESE,123,2.0,3.0,53,0.00,,,0.00,Wunderground v.1.15,2013-05-18 23:14:00,
2013-05-18 18:25:00,88.2,68.9,29.80,SE,136,3.0,4.0,53,0.00,,,0.00,Wunderground v.1.15,2013-05-18 23:25:00,
2013-05-18 18:34:00,87.8,68.5,29.80,East,91,2.0,2.0,53,0.00,,,0.00,Wunderground v.1.15,2013-05-18 23:34:00,
2013-05-18 18:45:00,87.2,68.0,29.80,SE,127,2.0,2.0,53,0.00,,,0.00,Wunderground v.1.15,2013-05-18 23:45:00,
2013-05-18 18:54:00,86.9,68.8,29.80,NE,51,2.0,2.0,55,0.00,,,0.00,Wunderground v.1.15,2013-05-18 23:54:00,
2013-05-18 19:04:00,86.5,68.4,29.80,SE,131,2.0,3.0,55,0.00,,,0.00,Wunderground v.1.15,2013-05-19 00:04:00,
2013-05-18 19:14:00,86.4,68.8,29.80,SE,130,2.0,2.0,56,0.00,,,0.00,Wunderground v.1.15,2013-05-19 00:14:00,
2013-05-18 19:20:00,86.3,69.3,29.80,East,82,2.0,10.0,57,0.00,,,0.00,Wunderground v.1.15,2013-05-19 00:20:00,
2013-05-18 19:29:00,85.9,69.4,29.81,ESE,114,2.0,6.0,58,0.00,,,0.00,Wunderground v.1.15,2013-05-19 00:29:00,
2013-05-18 19:39:00,85.6,69.6,29.81,North,358,1.0,1.0,59,0.00,,,0.00,Wunderground v.1.15,2013-05-19 00:39:00,
2013-05-18 19:49:00,85.3,69.8,29.81,ESE,114,2.0,2.0,60,0.00,,,0.00,Wunderground v.1.15,2013-05-19 00:49:00,
2013-05-18 20:00:00,84.8,69.9,29.81,SSE,147,2.0,2.0,61,0.00,,,0.00,Wunderground v.1.15,2013-05-19 01:00:00,
2013-05-18 20:09:00,84.2,69.8,29.81,SE,124,2.0,2.0,62,0.00,,,0.00,Wunderground v.1.15,2013-05-19 01:09:00,
2013-05-18 20:20:00,83.5,69.1,29.81,ESE,115,1.0,2.0,62,0.00,,,0.00,Wunderground v.1.15,2013-05-19 01:20:00,
2013-05-18 20:29:00,82.9,69.0,29.81,WNW,291,1.0,1.0,63,0.00,,,0.00,Wunderground v.1.15,2013-05-19 01:29:00,
2013-05-18 20:35:00,82.6,68.3,29.81,ESE,110,1.0,2.0,62,0.00,,,0.00,Wunderground v.1.15,2013-05-19 01:35:00,
2013-05-18 20:44:00,82.2,68.3,29.81,ESE,114,1.0,1.0,63,0.00,,,0.00,Wunderground v.1.15,2013-05-19 01:44:00,
2013-05-18 20:54:00,81.9,68.1,29.81,East,86,1.0,2.0,63,0.00,,,0.00,Wunderground v.1.15,2013-05-19 01:54:00,
2013-05-18 20:59:00,81.7,67.9,29.81,SSE,153,1.0,1.0,63,0.00,,,0.00,Wunderground v.1.15,2013-05-19 01:59:00,
2013-05-18 21:09:00,81.5,67.7,29.81,SE,130,2.0,3.0,63,0.00,,,0.00,Wunderground v.1.15,2013-05-19 02:09:00,
2013-05-18 21:19:00,81.2,67.4,29.81,ESE,120,2.0,2.0,63,0.00,,,0.00,Wunderground v.1.15,2013-05-19 02:19:00,
2013-05-18 21:29:00,80.8,67.0,29.82,ESE,108,1.0,1.0,63,0.00,,,0.00,Wunderground v.1.15,2013-05-19 02:29:00,
2013-05-18 21:35:00,80.7,66.9,29.82,East,96,1.0,1.0,63,0.00,,,0.00,Wunderground v.1.15,2013-05-19 02:35:00,
2013-05-18 21:44:00,80.3,67.0,29.82,ESE,110,1.0,1.0,64,0.00,,,0.00,Wunderground v.1.15,2013-05-19 02:44:00,
2013-05-18 21:55:00,80.0,66.7,29.82,SSE,167,1.0,1.0,64,0.00,,,0.00,Wunderground v.1.15,2013-05-19 02:55:00,
2013-05-18 22:04:00,79.8,67.0,29.82,ESE,115,1.0,2.0,65,0.00,,,0.00,Wunderground v.1.15,2013-05-19 03:04:00,
2013-05-18 22:14:00,79.5,66.7,29.83,ESE,117,1.0,2.0,65,0.00,,,0.00,Wunderground v.1.15,2013-05-19 03:14:00,
2013-05-18 22:24:00,79.2,66.9,29.83,SSE,148,1.0,1.0,66,0.00,,,0.00,Wunderground v.1.15,2013-05-19 03:24:00,
2013-05-18 22:30:00,79.0,66.7,29.83,ESE,113,1.0,1.0,66,0.00,,,0.00,Wunderground v.1.15,2013-05-19 03:30:00,
2013-05-18 22:39:00,78.7,66.4,29.84,SE,132,1.0,1.0,66,0.00,,,0.00,Wunderground v.1.15,2013-05-19 03:39:00,
2013-05-18 22:49:00,78.4,66.5,29.84,ESE,106,1.0,1.0,67,0.00,,,0.00,Wunderground v.1.15,2013-05-19 03:49:00,
2013-05-18 22:55:00,78.3,66.4,29.84,SE,126,1.0,1.0,67,0.00,,,0.00,Wunderground v.1.15,2013-05-19 03:55:00,
2013-05-18 23:04:00,78.0,66.6,29.84,ESE,121,1.0,1.0,68,0.00,,,0.00,Wunderground v.1.15,2013-05-19 04:04:00,
2013-05-18 23:10:00,78.0,67.0,29.84,East,86,1.0,1.0,69,0.00,,,0.00,Wunderground v.1.15,2013-05-19 04:10:00,
2013-05-18 23:19:00,77.7,66.7,29.84,ESE,113,1.0,1.0,69,0.00,,,0.00,Wunderground v.1.15,2013-05-19 04:19:00,
2013-05-18 23:24:00,77.6,67.0,29.84,SE,132,1.0,1.0,70,0.00,,,0.00,Wunderground v.1.15,2013-05-19 04:24:00,
2013-05-18 23:34:00,77.3,66.7,29.85,SE,130,1.0,1.0,70,0.00,,,0.00,Wunderground v.1.15,2013-05-19 04:34:00,
2013-05-18 23:45:00,77.0,66.9,29.85,West,281,1.0,1.0,71,0.00,,,0.00,Wunderground v.1.15,2013-05-19 04:45:00,
2013-05-18 23:54:00,76.7,67.0,29.84,SE,126,1.0,2.0,72,0.00,,,0.00,Wunderground v.1.15,2013-05-19 04:54:00,